• In Germany
  • List of Countries
  • For 7 days
  • Water Temperature
  • Satellite Maps
  • Weather Map
  • Weather Widgets
  • user-avatar
    Login

    Hourly Weather Quibdó

    Today, 20 August, Sunday

    Time Temperature Precipitation Wind Pressure Humidity
    00:00 +23°C° 2.9 mm 0 mps 751 mmHg 96%
    01:00 +23°C° 0 mm 0 mps 751 mmHg 96%
    02:00 +23°C° 2.9 mm 0 mps 751 mmHg 96%
    03:00 +23°C° 2.9 mm 0 mps 750 mmHg 96%
    04:00 +23°C° 2.9 mm 0 mps 750 mmHg 97%
    05:00 +23°C° 0.9 mm 0 mps 751 mmHg 96%
    06:00 +23°C° 0.9 mm 0 mps 751 mmHg 96%
    07:00 +23°C° 0.9 mm 0 mps 751 mmHg 95%
    08:00 +25°C° 0.1 mm 0 mps 751 mmHg 90%
    09:00 +26°C° 0.1 mm 0 mps 751 mmHg 85%
    10:00 +30°C° 0.1 mm 1 mps 751 mmHg 80%
    11:00 +30°C° 0.4 mm 1 mps 750 mmHg 78%
    12:00 +31°C° 0.4 mm 1 mps 750 mmHg 77%
    13:00 +31°C° 0.4 mm 1 mps 749 mmHg 75%
    14:00 +31°C° 0.8 mm 1 mps 749 mmHg 80%
    15:00 +30°C° 0.8 mm 1 mps 748 mmHg 84%
    16:00 +29°C° 0.8 mm 1 mps 748 mmHg 88%
    17:00 +28°C° 1.3 mm 1 mps 748 mmHg 91%
    18:00 +27°C° 1.3 mm 1 mps 749 mmHg 94%
    19:00 +24°C° 1.3 mm 0 mps 749 mmHg 97%
    20:00 +24°C° 0.6 mm 0 mps 750 mmHg 97%
    21:00 +24°C° 0.6 mm 0 mps 751 mmHg 96%
    22:00 +23°C° 0.6 mm 0 mps 751 mmHg 96%
    23:00 +23°C° 0.1 mm 0 mps 751 mmHg 96%

    Tomorrow, 21 August, Monday

    Time Temperature Precipitation Wind Pressure Humidity
    00:00 +23°C° 0.1 mm 0 mps 751 mmHg 96%
    01:00 +23°C° 0.1 mm 0 mps 751 mmHg 96%
    02:00 +23°C° 0.1 mm 0 mps 751 mmHg 96%
    03:00 +23°C° 0.1 mm 0 mps 751 mmHg 95%
    04:00 +23°C° 0.1 mm 0 mps 750 mmHg 95%
    05:00 +23°C° 0 mm 0 mps 751 mmHg 94%
    06:00 +23°C° 0 mm 0 mps 751 mmHg 93%
    07:00 +23°C° 0 mm 0 mps 751 mmHg 92%
    08:00 +25°C° 0.1 mm 0 mps 752 mmHg 86%
    09:00 +29°C° 0.1 mm 1 mps 752 mmHg 80%
    10:00 +31°C° 0.1 mm 1 mps 752 mmHg 74%
    11:00 +32°C° 0.1 mm 1 mps 751 mmHg 70%
    12:00 +33°C° 0.1 mm 1 mps 750 mmHg 67%
    13:00 +34°C° 0.1 mm 1 mps 749 mmHg 63%
    14:00 +33°C° 1.1 mm 1 mps 749 mmHg 69%
    15:00 +32°C° 1.1 mm 1 mps 748 mmHg 75%
    16:00 +31°C° 1.1 mm 1 mps 748 mmHg 81%
    17:00 +29°C° 0.8 mm 1 mps 749 mmHg 85%
    18:00 +28°C° 0.8 mm 1 mps 749 mmHg 90%
    19:00 +27°C° 0.8 mm 1 mps 750 mmHg 94%
    20:00 +24°C° 0.1 mm 0 mps 751 mmHg 94%
    21:00 +24°C° 0.1 mm 0 mps 752 mmHg 94%
    22:00 +24°C° 0.1 mm 0 mps 752 mmHg 94%
    23:00 +24°C° 0 mm 0 mps 752 mmHg 94%

    Day after tomorrow, 22 August, Tuesday

    Time Temperature Precipitation Wind Pressure Humidity
    00:00 +24°C° 0 mm 0 mps 752 mmHg 94%
    01:00 +23°C° 0 mm 0 mps 751 mmHg 94%
    02:00 +23°C° 0 mm 0 mps 751 mmHg 94%
    03:00 +23°C° 0 mm 0 mps 751 mmHg 94%
    04:00 +23°C° 0 mm 0 mps 751 mmHg 93%
    05:00 +23°C° 0 mm 0 mps 751 mmHg 92%
    06:00 +24°C° 0 mm 0 mps 751 mmHg 91%
    07:00 +24°C° 0 mm 0 mps 751 mmHg 89%
    08:00 +28°C° 0 mm 1 mps 752 mmHg 83%
    09:00 +30°C° 0 mm 1 mps 752 mmHg 76%
    10:00 +32°C° 0 mm 1 mps 752 mmHg 69%
    11:00 +32°C° 0.2 mm 1 mps 751 mmHg 68%
    12:00 +34°C° 0.2 mm 2 mps 750 mmHg 67%
    13:00 +34°C° 0.2 mm 2 mps 749 mmHg 67%
    14:00 +32°C° 1.9 mm 2 mps 749 mmHg 74%
    15:00 +31°C° 1.9 mm 1 mps 748 mmHg 81%
    16:00 +29°C° 1.9 mm 1 mps 748 mmHg 89%
    17:00 +28°C° 2.4 mm 1 mps 749 mmHg 91%
    18:00 +27°C° 2.4 mm 1 mps 749 mmHg 93%
    19:00 +26°C° 2.4 mm 1 mps 750 mmHg 96%
    20:00 +26°C° 3.5 mm 1 mps 750 mmHg 96%
    21:00 +26°C° 3.5 mm 1 mps 751 mmHg 96%
    22:00 +26°C° 3.5 mm 1 mps 752 mmHg 96%
    23:00 +25°C° 1.9 mm 1 mps 752 mmHg 95%

    23 August, Wednesday

    Time Temperature Precipitation Wind Pressure Humidity
    00:00 +25°C° 1.9 mm 1 mps 751 mmHg 95%
    01:00 +25°C° 1.9 mm 1 mps 751 mmHg 95%
    02:00 +25°C° 1 mm 1 mps 751 mmHg 95%
    03:00 +25°C° 1 mm 1 mps 750 mmHg 95%
    04:00 +24°C° 1 mm 1 mps 750 mmHg 95%
    05:00 +25°C° 0.7 mm 1 mps 750 mmHg 94%
    06:00 +23°C° 0.7 mm 0 mps 751 mmHg 93%
    07:00 +23°C° 0.7 mm 0 mps 751 mmHg 92%
    08:00 +27°C° 0.1 mm 1 mps 751 mmHg 86%
    09:00 +28°C° 0.1 mm 1 mps 751 mmHg 81%
    10:00 +30°C° 0.1 mm 1 mps 751 mmHg 75%
    11:00 +31°C° 0.1 mm 1 mps 750 mmHg 74%
    12:00 +31°C° 0.1 mm 1 mps 749 mmHg 72%
    13:00 +32°C° 0.1 mm 2 mps 748 mmHg 70%
    14:00 +31°C° 1.7 mm 2 mps 748 mmHg 77%
    15:00 +29°C° 1.7 mm 1 mps 748 mmHg 84%
    16:00 +28°C° 1.7 mm 1 mps 748 mmHg 90%
    17:00 +27°C° 3.3 mm 1 mps 748 mmHg 92%
    18:00 +26°C° 3.3 mm 1 mps 749 mmHg 94%
    19:00 +26°C° 3.3 mm 1 mps 750 mmHg 96%
    20:00 +25°C° 3.3 mm 1 mps 750 mmHg 96%
    21:00 +25°C° 3.3 mm 1 mps 751 mmHg 96%
    22:00 +25°C° 3.3 mm 1 mps 751 mmHg 96%
    23:00 +23°C° 1.3 mm 0 mps 751 mmHg 96%

    24 August, Thursday

    Time Temperature Precipitation Wind Pressure Humidity
    00:00 +23°C° 1.3 mm 0 mps 751 mmHg 96%
    01:00 +23°C° 1.3 mm 0 mps 751 mmHg 96%
    02:00 +23°C° 0.5 mm 0 mps 750 mmHg 95%
    03:00 +22°C° 0.5 mm 0 mps 750 mmHg 95%
    04:00 +22°C° 0.5 mm 0 mps 750 mmHg 95%
    05:00 +22°C° 0 mm 0 mps 750 mmHg 95%
    06:00 +23°C° 0 mm 0 mps 751 mmHg 94%
    07:00 +23°C° 0 mm 0 mps 751 mmHg 94%
    08:00 +24°C° 0.1 mm 0 mps 751 mmHg 89%
    09:00 +27°C° 0.1 mm 1 mps 751 mmHg 85%
    10:00 +29°C° 0.1 mm 1 mps 751 mmHg 81%
    11:00 +29°C° 0.5 mm 1 mps 751 mmHg 79%
    12:00 +30°C° 0.5 mm 1 mps 750 mmHg 77%
    13:00 +31°C° 0.5 mm 1 mps 749 mmHg 75%
    14:00 +30°C° 0.9 mm 1 mps 749 mmHg 79%
    15:00 +29°C° 0.9 mm 1 mps 749 mmHg 84%
    16:00 +28°C° 0.9 mm 1 mps 748 mmHg 89%
    17:00 +27°C° 1.4 mm 1 mps 749 mmHg 91%
    18:00 +26°C° 1.4 mm 1 mps 749 mmHg 94%
    19:00 +26°C° 1.4 mm 1 mps 750 mmHg 96%
    20:00 +25°C° 1.8 mm 1 mps 751 mmHg 96%
    21:00 +23°C° 1.8 mm 0 mps 751 mmHg 96%
    22:00 +23°C° 1.8 mm 0 mps 752 mmHg 96%
    23:00 +23°C° 1.6 mm 0 mps 751 mmHg 96%

    25 August, Friday

    Time Temperature Precipitation Wind Pressure Humidity
    00:00 +23°C° 1.6 mm 0 mps 751 mmHg 96%
    01:00 +23°C° 1.6 mm 0 mps 751 mmHg 96%
    02:00 +22°C° 1 mm 0 mps 751 mmHg 96%
    03:00 +22°C° 1 mm 0 mps 751 mmHg 96%
    04:00 +22°C° 1 mm 0 mps 751 mmHg 96%
    05:00 +22°C° 0.6 mm 0 mps 751 mmHg 95%
    06:00 +22°C° 0.6 mm 0 mps 752 mmHg 94%
    07:00 +23°C° 0.6 mm 0 mps 752 mmHg 93%
    08:00 +24°C° 0.3 mm 0 mps 752 mmHg 89%
    09:00 +25°C° 0.3 mm 0 mps 752 mmHg 84%
    10:00 +29°C° 0.3 mm 1 mps 752 mmHg 80%
    11:00 +30°C° 0.3 mm 1 mps 751 mmHg 76%
    12:00 +31°C° 0.3 mm 1 mps 751 mmHg 73%
    13:00 +32°C° 0.3 mm 2 mps 750 mmHg 69%
    14:00 +31°C° 0.9 mm 1 mps 749 mmHg 75%
    15:00 +30°C° 0.9 mm 1 mps 749 mmHg 81%
    16:00 +29°C° 0.9 mm 1 mps 749 mmHg 87%
    17:00 +28°C° 1.3 mm 1 mps 749 mmHg 90%
    18:00 +27°C° 1.3 mm 1 mps 750 mmHg 93%
    19:00 +26°C° 1.3 mm 1 mps 751 mmHg 96%
    20:00 +25°C° 1.2 mm 1 mps 751 mmHg 96%
    21:00 +23°C° 1.2 mm 0 mps 752 mmHg 96%
    22:00 +23°C° 1.2 mm 0 mps 752 mmHg 96%
    23:00 +23°C° 0.4 mm 0 mps 752 mmHg 96%
    Show more